Faro current weather conditions

sailwx.info

Wind at 2 knots

Air temperature 21.0° C
Dewpoint 14.0° C

Last reported at 2014-Oct-20 23:00 UTC.
Time now 2014-Oct-21 00:48 UTC

Location: N 37°01' W 007°58'.
View on Google Maps.

See reports from other nearby stations

  
Tides and Currents Weather Stations Pressure Air Temp Water Temp Dewpoint Dewpoint Depression Visibility Wind Speed Wind Dir Waves Ship Positions
date/time (UTC)wind fromknots sea level pressurealtimeterstation pressurevisibilityair tempwater tempwave heightnotes
2014-Oct-20 23:00 21.0
2014-Oct-20 22:30 020 4 20.0
2014-Oct-20 22:00 030 5 22.0
2014-Oct-20 21:30 010 3 21.0
2014-Oct-20 21:00 030 5 22.0
2014-Oct-20 20:30 360 4 23.0
2014-Oct-20 20:00 360 5 23.0
2014-Oct-20 19:30 020 4 26.0
2014-Oct-20 19:00 24.0
2014-Oct-20 18:30 090 5 25.0
2014-Oct-20 18:00 100 7 25.0
2014-Oct-20 17:30 100 8 27.0
2014-Oct-20 17:00 080 8 28.0
2014-Oct-20 16:30 080 8 29.0
2014-Oct-20 16:00 080 9 29.0
2014-Oct-20 15:30 100 8 29.0
2014-Oct-20 15:00 100 10 29.0
2014-Oct-20 14:30 110 10 29.0
2014-Oct-20 14:00 090 10 29.0
2014-Oct-20 13:30 090 9 29.0
2014-Oct-20 13:00 090 10 29.0
2014-Oct-20 12:30 090 10 gusting 20 29.0
2014-Oct-20 12:00 090 12 28.0
2014-Oct-20 11:30 090 11 28.0
2014-Oct-20 11:00 090 11 28.0
2014-Oct-20 10:30 090 11 28.0
2014-Oct-20 10:00 080 11 28.0
2014-Oct-20 09:30 080 11 27.0
2014-Oct-20 09:00 070 12 26.0
2014-Oct-20 08:30 070 11 25.0
2014-Oct-20 08:00 070 11 25.0
2014-Oct-20 07:30 070 11 25.0
2014-Oct-20 07:00 070 11 25.0
2014-Oct-20 06:30 070 12 25.0
2014-Oct-20 06:00 070 12 25.0
2014-Oct-20 05:30 070 11 25.0
2014-Oct-20 05:00 070 11 25.0
2014-Oct-20 04:30 070 11 25.0
2014-Oct-20 03:00 070 12 25.0
2014-Oct-20 02:30 070 12 25.0
2014-Oct-20 02:00 070 12 25.0
2014-Oct-20 01:30 080 12 25.0
2014-Oct-20 01:00 080 12 25.0
2014-Oct-20 00:30 070 10 24.0
2014-Oct-20 00:00 090 11 25.0
2014-Oct-19 23:30 090 10 25.0
2014-Oct-19 23:00 090 11 25.0
2014-Oct-19 22:41 090 10 25.0
2014-Oct-19 22:30 080 7 23.0
2014-Oct-19 22:00 060 9 23.0
2014-Oct-19 21:30 070 7 24.0
2014-Oct-19 21:00 070 7 24.0
2014-Oct-19 20:30 070 8 24.0
2014-Oct-19 20:00 070 8 25.0
2014-Oct-19 19:30 080 7 25.0
2014-Oct-19 19:00 090 7 26.0
2014-Oct-19 18:30 090 5 26.0
2014-Oct-19 18:00 080 6 27.0
2014-Oct-19 17:30 080 7 27.0
2014-Oct-19 17:00 090 10 28.0
2014-Oct-19 16:30 080 11 gusting 25 28.0
2014-Oct-19 16:00 090 10 29.0
2014-Oct-19 15:30 100 11 28.0
2014-Oct-19 15:00 090 9 27.0
2014-Oct-19 14:30 090 12 27.0
2014-Oct-19 14:00 090 11 28.0
2014-Oct-19 13:30 090 12 27.0
2014-Oct-19 13:00 090 12 27.0
2014-Oct-19 12:30 090 12 gusting 23 27.0
2014-Oct-19 12:00 090 13 27.0
2014-Oct-19 11:30 090 11 26.0
2014-Oct-19 11:00 090 12 26.0
2014-Oct-19 10:30 090 13 26.0
2014-Oct-19 10:00 090 12 25.0
2014-Oct-19 09:30 080 9 24.0
2014-Oct-19 09:00 080 8 23.0
2014-Oct-19 08:30 080 8 gusting 18 22.0
2014-Oct-19 08:00 080 7 22.0
2014-Oct-19 07:30 080 9 22.0
2014-Oct-19 07:00 080 6 5.421.0
2014-Oct-19 06:30 080 8 21.0
2014-Oct-19 06:00 090 6 5.421.0
2014-Oct-19 05:30 080 6 21.0
2014-Oct-19 05:00 050 5 20.0
2014-Oct-19 04:30 060 5 20.0
2014-Oct-19 04:00 050 5 20.0
2014-Oct-19 03:30 060 6 20.0
2014-Oct-19 03:00 040 5 19.0
2014-Oct-19 02:30 030 7 20.0
2014-Oct-19 02:00 040 6 20.0
2014-Oct-19 01:30 040 6 19.0
2014-Oct-19 01:00 030 6 20.0
2014-Oct-19 00:30 030 6 20.0
2014-Oct-19 00:00 040 5 20.0